This is the latest recevied weather packets stored in our database for station/object IZ8XTV-13. If no packets are shown the sender has not sent any weather packets the latest 10 day(s).
| Time | Temp. | Humidity | Pressure | Rain* | Wind** | Luminosity | Snow |
|---|---|---|---|---|---|---|---|
| 1778244441 | 17.22° C | 99% | 1014.1 hPa | 0 mm | - | - | - |
| 1778243829 | 17.78° C | 99% | 1014.1 hPa | 0 mm | - | - | - |
| 1778243218 | 17.78° C | 99% | 1014 hPa | 0 mm | - | - | - |
| 1778242606 | 17.78° C | 99% | 1013.9 hPa | 0 mm | - | - | - |
| 1778241995 | 17.78° C | 99% | 1013.8 hPa | 0 mm | - | - | - |
| 1778241384 | 17.78° C | 99% | 1013.8 hPa | 0 mm | - | - | - |
| 1778240771 | 17.78° C | 99% | 1013.8 hPa | 0 mm | - | - | - |
| 1778240159 | 18.33° C | 99% | 1013.7 hPa | 0 mm | - | - | - |
| 1778239547 | 19.44° C | 99% | 1013.5 hPa | 0 mm | - | - | - |
| 1778238935 | 18.89° C | 99% | 1013.4 hPa | 0 mm | - | - | - |
| 1778238323 | 18.89° C | 99% | 1013.4 hPa | 0 mm | - | - | - |
| 1778237711 | 18.33° C | 99% | 1013.5 hPa | 0 mm | - | - | - |
| 1778237100 | 18.89° C | 99% | 1013.5 hPa | 0 mm | - | - | - |
| 1778236489 | 18.89° C | 99% | 1013.4 hPa | 0 mm | - | - | - |
| 1778235877 | 18.89° C | 99% | 1013.4 hPa | 0 mm | - | - | - |
| 1778235265 | 19.44° C | 99% | 1013.3 hPa | 0 mm | - | - | - |
| 1778234654 | 18.33° C | 99% | 1013.4 hPa | 0 mm | - | - | - |
| 1778234043 | 17.78° C | 99% | 1013.2 hPa | 0 mm | - | - | - |
| 1778233431 | 17.78° C | 99% | 1013.3 hPa | 0 mm | - | - | - |
| 1778232820 | 18.33° C | 99% | 1013.3 hPa | 0 mm | - | - | - |
| 1778232208 | 18.33° C | 99% | 1013.2 hPa | 0 mm | - | - | - |
| 1778231597 | 18.33° C | 99% | 1013.1 hPa | 0 mm | - | - | - |
| 1778230985 | 18.33° C | 99% | 1013.2 hPa | 0 mm | - | - | - |
| 1778230373 | 18.33° C | 99% | 1013.3 hPa | 0 mm | - | - | - |
| 1778229761 | 18.33° C | 99% | 1013.1 hPa | 0 mm | - | - | - |
* Rain latest hour (hover to see other rain measurements)
** Current wind speed in m/s (hover to see current wind gust speed)